Emporia, KS

3:55 AM CDT on September 24, 2017 (GMT -0500)
Emporia Municipal

Weather History for KEMP - September, 2013

Change the Weather History Date:

Friday, September 6, 2013

  Actual Average Record
Temperature  
Mean Temperature 79 °F 73 °F  
Max Temperature 91 °F 85 °F 100 °F (1998)
Min Temperature 66 °F 60 °F 45 °F (2011)
Degree Days  
Heating Degree Days 0 0  
Month to date heating degree days 0 0  
Since 1 July heating degree days 2 1  
Cooling Degree Days 14 8  
Month to date cooling degree days 56 52  
Year to date cooling degree days 1185 1260  
Growing Degree Days 28 (Base 50)    
Moisture  
Dew Point 64 °F    
Average Humidity 64    
Maximum Humidity 87    
Minimum Humidity 41    
Precipitation  
Precipitation 0.00 in 0.17 in 0.48 in (2001)
Month to date precipitation T 0.99  
Year to date precipitation 24.09 27.60  
Sea Level Pressure  
Sea Level Pressure 30.05 in    
Wind  
Wind Speed 9 mph (SSE)    
Max Wind Speed 15 mph    
Max Gust Speed 21 mph    
Visibility 10 miles    
Events      
T = Trace of Precipitation, MM = Missing Value Source: NWS Daily Summary

Daily Weather History Graph

Daily Weather History Graph

Search for Another Location

Airport or City:

Trip Planner

Search our weather history database for the weather conditions in past years. The results will help you decide how hot, cold, wet, or windy it might be!

Date:

Astronomy

Sep. 06, 2013 Rise Set
Actual Time 6:58 AM CDT 7:46 PM CDT
Civil Twilight 6:32 AM CDT 8:13 PM CDT
Nautical Twilight 6:00 AM CDT 8:44 PM CDT
Astronomical Twilight 5:27 AM CDT 9:17 PM CDT
Moon 8:10 AM CDT (9/6) 8:13 PM CDT (9/6)
Length of Visible Light 13h 41m
Length of Day
12h 47m
New Moon, 2% of the Moon is Illuminated
Sep 6
New Moon
Sep 12
First Quarter
Sep 19
Full
Sep 26
Last Quarter
Oct 4
New

Hourly Weather History & Observations

Time (CDT) Temp. Heat Index Dew Point Humidity Pressure Visibility Wind Dir Wind Speed Gust Speed Precip Events Conditions
12:53 AM 70.0 °F - 62.1 °F 76% 30.11 in 10.0 mi SE 6.9 mph - N/A   Clear
1:53 AM 70.0 °F - 62.1 °F 76% 30.10 in 10.0 mi SSE 8.1 mph - N/A   Clear
2:53 AM 66.9 °F - 62.1 °F 84% 30.09 in 10.0 mi SSE 6.9 mph - N/A   Clear
3:53 AM 66.9 °F - 62.1 °F 84% 30.08 in 10.0 mi SSE 6.9 mph - N/A   Clear
4:53 AM 66.9 °F - 62.1 °F 84% 30.09 in 10.0 mi SSE 4.6 mph - N/A   Clear
5:53 AM 68.0 °F - 62.1 °F 81% 30.09 in 10.0 mi SSE 5.8 mph - N/A   Clear
6:53 AM 68.0 °F - 62.1 °F 81% 30.09 in 10.0 mi South 6.9 mph - N/A   Scattered Clouds
7:53 AM 69.1 °F - 63.0 °F 81% 30.11 in 10.0 mi SSE 5.8 mph - N/A   Partly Cloudy
8:53 AM 73.0 °F - 63.0 °F 71% 30.12 in 10.0 mi SSE 6.9 mph - N/A   Clear
9:53 AM 77.0 °F - 64.0 °F 64% 30.12 in 10.0 mi South 8.1 mph - N/A   Clear
10:53 AM 81.0 °F 82.5 °F 64.0 °F 56% 30.10 in 10.0 mi South 9.2 mph - N/A   Clear
11:53 AM 84.9 °F 86.6 °F 64.9 °F 51% 30.09 in 10.0 mi South 10.4 mph - N/A   Clear
12:53 PM 88.0 °F 89.6 °F 64.9 °F 46% 30.06 in 10.0 mi South 8.1 mph - N/A   Clear
1:53 PM 89.1 °F 91.0 °F 64.9 °F 45% 30.04 in 10.0 mi SSE 10.4 mph - N/A   Clear
2:53 PM 91.0 °F 93.0 °F 64.9 °F 42% 30.02 in 10.0 mi South 10.4 mph 17.3 mph N/A   Clear
3:53 PM 90.0 °F 91.7 °F 64.9 °F 43% 30.00 in 10.0 mi South 12.7 mph 17.3 mph N/A   Clear
4:53 PM 90.0 °F 91.7 °F 64.9 °F 43% 29.99 in 10.0 mi SSE 12.7 mph - N/A   Clear
5:53 PM 89.1 °F 91.0 °F 64.9 °F 45% 29.98 in 10.0 mi South 12.7 mph - N/A   Clear
6:53 PM 86.0 °F 88.2 °F 66.0 °F 51% 29.97 in 10.0 mi South 10.4 mph - N/A   Clear
7:53 PM 82.0 °F 84.1 °F 66.0 °F 58% 29.97 in 10.0 mi SSE 8.1 mph - N/A   Clear
8:53 PM 79.0 °F - 66.0 °F 64% 29.97 in 10.0 mi SSE 9.2 mph - N/A   Clear
9:53 PM 77.0 °F - 64.9 °F 66% 29.98 in 10.0 mi SSE 6.9 mph - N/A   Clear
10:53 PM 75.9 °F - 66.0 °F 71% 29.96 in 10.0 mi SSE 9.2 mph - N/A   Clear
11:53 PM 75.9 °F - 64.9 °F 69% 29.96 in 10.0 mi South 11.5 mph - N/A   Clear